Погода в Милюшине

Россия / Ярославская область     58°17′33″N   38°52′23″E
В апреле 2022 года жителям России запретили посещать сайт meteo.paraplan.net по решению Генеральной прокуратуры. Аудитория сайта уменьшилась в 10 раз. Владельцы сайта не видят смысла в поддержке погодного сервера в таких условиях. Сайт будет закрыт в октябре.
темп.,
°C
ветер,
м/с
пор.,
м/с
влажн.,
%
обл.,
%
осадки,
мм/ч
давл.,
гПа
погр.,
м
4 октября, вт
вт400:00+9ююв91681100 0.1 10051248
03:00+10юв10168243 0.1 10061046
06:00+10юв101584100 0.0 10081064
09:00+10юв9158487 0.0 1008969
12:00+12юв91476100 0.0 10091055
15:00+13юв9146658 0.1 1008792
18:00+12ю81378100 1.3 1010566
21:00+9ю71186100 4.7 1011828
5 октября, ср
ср500:00+8ююв71287100 3.1 1010753
03:00+9ююв5984100 3.8 1010586
06:00+8ю588492 0.1 1010779
09:00+7ю568187 0.2 1011622
12:00+8ююз347693 0.1 1012701
15:00+8зюз3382100 0.4 1013389
18:00+7юз237937 0.1 1013390
21:00+7зюз338322 0.1 1013362
6 октября, чт
чт600:00+7зсз348360 0.1 1014433
03:00+7зсз338234 0.1 1014372
06:00+7зсз33836 0.0 1015329
09:00+7з33825 0.0 1015385
12:00+8зюз34783 0.0 1016504
15:00+10ююз46690 0.0 1015709
18:00+9ю6107791 0.0 1014425
21:00+9ююз71386100 0.0 1012499
7 октября, пт
пт700:00+10ююз71292100 0.1 1010477
03:00+11зюз81393100 1.8 1009510
06:00+10з9148641 0.7 1012706
09:00+10з81484100 0.8 1013784
12:00+10з91480100 0.2 1014874
15:00+11з914785 0.3 1015717
18:00+11з814779 0.0 1017502
21:00+10з712827 0.1 1019466
8 октября, сб
сб800:00+9зюз611909 0.0 1020412
03:00+8юз610915 0.0 1019313
06:00+8юз6119210 0.0 1020321
09:00+8ююз71291100 0.0 1019361
12:00+11юз7118050 0.0 1018422
15:00+12ююз6107569 0.0 1017382
18:00+11ююз71377100 0.0 1015389
21:00+11ююз91579100 0.0 1014554